This demonstration page uses our WeatherBlox Daily Observations layout. Learn more.

38.88101, -77.10428

Hourly Observations for June 13, 2016

Temp ( °F °C ) Dew Point ( °F °C ) Humidity (%) Winds ( mph kmh ) Pressure ( in mb ) Visibility ( mi km ) Precip ( " mm )
12:52 am 00:52 Mostly Cloudy 70 21.1 42 5.6 37 37 NW 12 19 29.9 1013 10 16.0934 0 0
1:52 am 01:52 Mostly Cloudy 69 20.6 42 5.6 38 38 NW 13 20 29.91 1013 10 16.0934 0 0
2:52 am 02:52 Mostly Cloudy 67 19.4 44 6.7 44 44 NW 15 24 29.91 1013 10 16.0934 0 0
3:52 am 03:52 Mostly Cloudy 66 18.9 45 7.2 47 47 NW 16 26 29.91 1013 10 16.0934 0 0
4:52 am 04:52 Mostly Clear 65 18.3 46 7.8 51 51 NW 13 20 29.92 1013 10 16.0934 0 0
5:52 am 05:52 Mostly Sunny 64 17.8 47 8.3 54 54 NW 15 24 29.95 1014 10 16.0934 0 0
6:52 am 06:52 Mostly Cloudy 65 18.3 47 8.3 52 52 NW 14 22 29.96 1015 10 16.0934 0 0
7:52 am 07:52 Mostly Cloudy 66 18.9 49 9.4 54 54 NW 16 26 29.97 1015 10 16.0934 0 0
8:52 am 08:52 Mostly Cloudy 68 20 48 8.9 49 49 NNW 16 26 29.98 1015 10 16.0934 0 0
9:52 am 09:52 Mostly Cloudy 69 20.6 49 9.4 49 49 NW 14 22 29.98 1015 10 16.0934 0 0
10:52 am 10:52 Mostly Cloudy 72 22.2 49 9.4 44 44 NNW 14 22 29.98 1015 10 16.0934 0 0
11:52 am 11:52 Partly Cloudy 72 22.2 50 10 46 46 WNW 9 15 29.96 1014 10 16.0934 0 0
12:52 pm 12:52 Mostly Cloudy 75 23.9 51 10.6 43 43 WNW 8 13 29.94 1014 10 16.0934 0 0
1:52 pm 13:52 Cloudy 77 25 52 11.1 42 42 NW 8 13 29.92 1013 10 16.0934 0 0
2:52 pm 14:52 Cloudy 79 26.1 52 11.1 39 39 NNW 9 15 29.9 1013 10 16.0934 0 0
3:52 pm 15:52 Mostly Cloudy 80 26.7 53 11.7 39 39 NNW 6 9 29.89 1012 10 16.0934 0 0
4:52 pm 16:52 Mostly Cloudy 79 26.1 53 11.7 41 41 N 12 19 29.86 1011 10 16.0934 0 0
5:52 pm 17:52 Mostly Cloudy 80 26.7 52 11.1 38 38 NNW 13 20 29.86 1011 10 16.0934 0 0
6:52 pm 18:52 Mostly Cloudy 79 26.1 52 11.1 39 39 NNW 9 15 29.86 1011 10 16.0934 0 0
7:52 pm 19:52 Mostly Cloudy 78 25.6 52 11.1 40 40 NNW 10 17 29.86 1011 10 16.0934 0 0
8:52 pm 20:52 Mostly Cloudy 77 25 53 11.7 43 43 N 6 9 29.86 1011 10 16.0934 0 0
9:52 pm 21:52 Mostly Cloudy 77 25 53 11.7 43 43 WNW 5 7 29.85 1011 10 16.0934 0 0
10:52 pm 22:52 Cloudy 77 25 54 12.2 45 45 NNW 9 15 29.86 1011 10 16.0934 0 0
11:52 pm 23:52 Cloudy 76 24.4 54 12.2 47 47 NNW 8 13 29.87 1012 10 16.0934 0 0

Powered by AerisWeather